Location: Arleux
(50.3632°N, 2.8721°E)
Time: 05:56:43
(UTC+00:00)

Cosmos 1452 Rocket - Pass Details

Date: 15 December 2019
Orbit: 767 x 775 km, 74.1° (Epoch: 21 January)

Event Time Altitude Azimuth Distance (km) Brightness Sun altitude
Exits shadow 05:16:40 49° 300° (WNW) 1,001 3.7 -21.9°
Maximum altitude 05:16:42 49° 301° (WNW) 1,001 3.7 -21.8°
Drops below altitude 10° 05:21:50 10° 16° (NNE) 2,335 6.0 -21.0°
Sets 05:24:19 0° 22° (NNE) 3,266 6.9 -20.7°
